This demonstration page uses our WeatherBlox Daily Observations layout. Learn more.

39.29038, -76.61219

Hourly Observations for August 6, 2020

Temp ( °F °C ) Dew Point ( °F °C ) Humidity (%) Winds ( mph kmh ) Pressure ( in mb ) Visibility ( mi km ) Precip ( " mm )
12:54 am 00:54 Cloudy 75 23.9 67 19.4 76 76 Calm 30.04 1017 10 16.0934 0 0
1:54 am 01:54 Cloudy 73 22.8 68 20 84 84 WNW 3 6 30.04 1017 10 16.0934 0 0
2:54 am 02:54 Cloudy 73 22.8 69 20.6 87 87 WNW 3 6 30.04 1017 10 16.0934 0 0
3:54 am 03:54 Cloudy 76 24.4 69 20.6 79 79 Calm 30.03 1017 10 16.0934 0 0
4:08 am 04:08 Cloudy with Thunderstorms 75 23.9 69 20.6 82 82 Calm 30.02 1017 10 16.0934 0 0
4:36 am 04:36 Cloudy with Thunderstorms 73 22.8 70 21.1 90 90 WNW 17 28 30.04 1017 2.5 4.02335 0.05 1.27
4:40 am 04:40 Cloudy with Heavy Thunderstorms 73 22.8 70 21.1 90 90 WNW 20 31 30.04 1017 1 1.60934 0.15 3.81
4:54 am 04:54 Cloudy with Heavy Thunderstorms 72 22.2 70 21.1 94 94 NW 7 11 30.04 1017 1 1.60934 0.61 15.494
5:05 am 05:05 Cloudy with Thunderstorms 72 22.2 70 21.1 94 94 NNW 6 9 30.03 1017 2.5 4.02335 0.11 2.794
5:15 am 05:15 Cloudy with Thunderstorms 72 22.2 70 21.1 94 94 N 3 6 30.04 1017 5 8.0467 0.11 2.794
5:25 am 05:25 Cloudy 72 22.2 69 20.6 91 91 NNE 3 6 30.04 1017 7 11.26538 0.11 2.794
5:49 am 05:49 Cloudy with Thunderstorms 72 22 70 21 94 94 VRB 3 6 30.07 1018 2 3.21868 0.16 4.064
5:54 am 05:54 Cloudy with Thunderstorms 72 22.2 69 20.6 91 91 NW 6 9 30.07 1018 2 3.21868 0.19 4.826
6:04 am 06:04 Cloudy with Heavy Thunderstorms 72 22.2 69 20.6 91 91 NNW 5 7 30.06 1018 1 1.60934 0.11 2.794
6:12 am 06:12 Cloudy with Rain 71 21.7 69 20.6 94 94 N 5 7 30.06 1018 2.5 4.02335 0.13 3.302
6:30 am 06:30 Cloudy with Rain 71 21.7 69 20.6 94 94 N 6 9 30.05 1018 3 4.82802 0.17 4.318
6:54 am 06:54 Mostly Cloudy with Mist and Fog 72 22.2 69 20.6 91 91 VRB 3 6 30.06 1018 6 9.65604 0.17 4.318
7:54 am 07:54 Mostly Cloudy with Mist and Fog 74 23.3 70 21.1 88 88 NNE 5 7 30.05 1018 6 9.65604 0 0
8:28 am 08:28 Mostly Cloudy with Mist and Fog 74 23.3 70 21.1 88 88 N 5 7 30.06 1018 6 9.65604 0 0
8:54 am 08:54 Mostly Cloudy with Mist and Fog 75 23.9 71 21.7 88 88 NNE 3 6 30.07 1018 6 9.65604 0 0
9:54 am 09:54 Mostly Cloudy 78 25.6 71 21.7 79 79 NE 7 11 30.07 1018 7 11.26538 0 0
10:18 am 10:18 Mostly Cloudy 78 25.6 70 21.1 76 76 NE 8 13 30.07 1018 8 12.87472 0 0
10:54 am 10:54 Mostly Cloudy 79 26.1 70 21.1 74 74 ENE 12 19 30.08 1019 10 16.0934 0 0
11:20 am 11:20 Mostly Cloudy 81 27.2 70 21.1 69 69 ENE 9 15 30.08 1019 10 16.0934 0 0
11:54 am 11:54 Mostly Cloudy 81 27.2 71 21.7 72 72 E 9 15 30.09 1019 9 14.48406 0 0
12:54 pm 12:54 Mostly Cloudy 80 26.7 69 20.6 69 69 ENE 9 15 30.09 1019 10 16.0934 0 0
1:25 pm 13:25 Mostly Cloudy 83 28.3 70 21.1 65 65 ENE 9 15 30.08 1019 10 16.0934 0 0
1:54 pm 13:54 Mostly Cloudy 84 28.9 71 21.7 65 65 E 10 17 30.07 1018 10 16.0934 0 0
2:54 pm 14:54 Mostly Cloudy 84 28.9 70 21.1 63 63 E 12 19 30.05 1018 10 16.0934 0 0
3:54 pm 15:54 Partly Cloudy 84 28.9 70 21.1 63 63 E 10 17 30.03 1017 10 16.0934 0 0
4:54 pm 16:54 Mostly Cloudy 84 28.9 70 21.1 63 63 E 13 20 30.03 1017 10 16.0934 0 0
5:54 pm 17:54 Mostly Cloudy 82 27.8 69 20.6 65 65 E 14 22 30.04 1017 10 16.0934 0 0
6:54 pm 18:54 Mostly Cloudy 79 26.1 69 20.6 72 72 ESE 10 17 30.04 1017 10 16.0934 0 0
7:54 pm 19:54 Cloudy 78 25.6 69 20.6 74 74 ESE 8 13 30.04 1017 10 16.0934 0 0
8:54 pm 20:54 Cloudy 78 25.6 70 21.1 76 76 ESE 7 11 30.06 1018 10 16.0934 0 0
9:33 pm 21:33 Cloudy 77 25 70 21.1 79 79 SE 5 7 30.06 1018 10 16.0934 0 0
9:54 pm 21:54 Cloudy 77 25 70 21.1 79 79 SSE 3 6 30.06 1018 10 16.0934 0 0
10:24 pm 22:24 Cloudy 77 25 70 21.1 79 79 Calm 30.05 1018 10 16.0934 0 0
10:54 pm 22:54 Cloudy with Light Rain 76 24.4 71 21.7 85 85 Calm 30.06 1018 10 16.0934 0.001 0.001
11:54 pm 23:54 Cloudy 77 25 70 21.1 79 79 Calm 30.06 1018 10 16.0934 0.001 0.001

Powered by AerisWeather